Le nostre stazioni meteo in Italia

Pubblicità
Il mio iltempo24.it
Lons-Le-Saunier, Francia (7390): Temperatura & dewpoint: 05.07.2020 10:00:00 - 11.07.2020 10:00:00 (CEST)Lons-Le-Saunier, Francia (7390): velocità del vento & gusts: 05.07.2020 10:00:00 - 11.07.2020 10:00:00 (CEST)Lons-Le-Saunier, Francia (7390): direzione del vento: 05.07.2020 10:00:00 - 11.07.2020 10:00:00 (CEST)Lons-Le-Saunier, Francia (7390): precipitazioni: 05.07.2020 10:00:00 - 11.07.2020 10:00:00 (CEST)
Data & Tempo tt [°C] td [°C] ff [km/h] ff [kn] fx [km/h] fx [kn] dd rr [mm]
11.07.2020 10:00:00 19,7 13,2 13 7 22 12 NNO 0,0
11.07.2020 09:00:00 18,2 13,7 10 6 18 10 N 0,0
11.07.2020 08:00:00 17,1 13,8 9 5 18 10 NO 0,0
11.07.2020 07:00:00 15,4 12,7 8 4 18 10 N 0,0
11.07.2020 06:00:00 15,8 13,3 10 5 14 8 NO 0,0
11.07.2020 05:00:00 16,5 12,8 4 2 17 9 N 0,0
11.07.2020 04:00:00 17,0 12,7 11 6 16 9 N 0,0
11.07.2020 03:00:00 17,8 11,8 10 5 18 10 N 0,0
11.07.2020 02:00:00 18,5 12,3 9 5 26 14 N 0,0
11.07.2020 01:00:00 19,1 12,4 18 10 27 14 NNO 0,0
11.07.2020 00:00:00 19,9 13,4 10 6 26 14 N 0,0
10.07.2020 23:00:00 19,8 15,0 6 4 17 9 SSE 0,0
10.07.2020 22:00:00 21,9 12,4 9 5 24 13 NE 0,0
10.07.2020 21:00:00 23,3 11,4 8 5 28 15 N 0,0
10.07.2020 20:00:00 24,1 12,1 11 6 19 11 O 0,0
10.07.2020 19:00:00 25,0 12,9 13 7 29 16 NO 0,0
10.07.2020 18:00:00 26,3 12,7 21 12 33 18 ONO 0,0
10.07.2020 17:00:00 25,7 12,9 16 9 40 22 O 0,0
10.07.2020 16:00:00 26,6 13,0 20 11 36 20 ONO 0,0
10.07.2020 15:00:00 27,4 12,6 16 8 38 20 O 0,0
10.07.2020 14:00:00 27,4 13,0 18 10 - - O 0,0
10.07.2020 13:00:00 27,0 14,4 15 8 29 16 O 0,0
10.07.2020 12:00:00 25,6 14,4 20 11 30 16 OSO 0,0
10.07.2020 11:00:00 25,3 14,1 17 9 30 16 OSO 0,0
10.07.2020 10:00:00 24,5 14,3 15 8 28 15 SO 0,0
10.07.2020 09:00:00 23,2 13,9 14 8 24 13 OSO 0,0
10.07.2020 08:00:00 21,8 13,9 12 6 18 10 SSO 0,0
10.07.2020 07:00:00 20,6 12,8 8 4 12 6 SSE 0,0
10.07.2020 06:00:00 21,7 12,3 8 4 19 10 SSO 0,0
10.07.2020 05:00:00 20,7 12,1 10 5 19 10 S 0,0
10.07.2020 04:00:00 20,6 12,0 10 6 14 8 SE 0,0
10.07.2020 03:00:00 21,1 12,0 10 5 14 7 SE 0,0
10.07.2020 02:00:00 22,0 12,0 11 6 14 8 SE 0,0
10.07.2020 01:00:00 22,7 12,0 10 5 13 7 SE 0,0
10.07.2020 00:00:00 23,4 12,1 9 5 13 7 ESE 0,0
09.07.2020 23:00:00 23,8 12,4 11 6 14 8 SE 0,0
09.07.2020 22:00:00 26,8 12,1 2 1 11 6 SE 0,0
09.07.2020 21:00:00 30,0 10,5 4 2 10 6 SSO 0,0
09.07.2020 20:00:00 31,5 9,1 5 3 15 8 S 0,0
09.07.2020 19:00:00 32,4 9,8 10 5 22 12 OSO 0,0
09.07.2020 18:00:00 32,6 8,8 11 6 24 13 SSO 0,0
09.07.2020 17:00:00 32,2 9,7 14 7 24 13 SSO 0,0
09.07.2020 16:00:00 32,3 10,9 11 6 25 14 OSO 0,0
09.07.2020 15:00:00 31,1 9,3 6 3 21 12 O 0,0
09.07.2020 14:00:00 31,1 11,0 4 2 22 12 S 0,0
09.07.2020 13:00:00 29,3 11,4 8 5 18 10 NNO 0,0
09.07.2020 12:00:00 27,7 13,2 7 4 15 8 ONO 0,0
09.07.2020 11:00:00 25,8 13,6 9 5 16 9 O 0,0
09.07.2020 10:00:00 24,0 12,9 5 3 14 8 SO 0,0
09.07.2020 09:00:00 23,3 12,6 5 3 16 9 S 0,0
09.07.2020 08:00:00 20,6 11,0 13 7 20 11 ESE 0,0
09.07.2020 07:00:00 18,1 10,7 12 7 21 11 SE 0,0
09.07.2020 06:00:00 17,2 10,6 13 7 21 11 SE 0,0
09.07.2020 05:00:00 17,5 10,4 12 7 19 11 ESE 0,0
09.07.2020 04:00:00 17,6 10,5 11 6 18 10 SE 0,0
09.07.2020 03:00:00 19,1 10,4 11 6 19 10 ESE 0,0
09.07.2020 02:00:00 19,7 10,7 11 6 18 10 ESE 0,0
09.07.2020 01:00:00 20,1 11,0 11 6 18 10 ESE 0,0
09.07.2020 00:00:00 20,6 11,0 10 6 16 8 ESE 0,0
08.07.2020 23:00:00 21,3 11,3 9 5 12 7 ESE 0,0
08.07.2020 22:00:00 23,3 11,4 7 4 9 5 ESE 0,0
08.07.2020 21:00:00 25,5 11,3 5 3 7 4 ENE 0,0
08.07.2020 20:00:00 26,9 9,3 4 2 10 5 NNO 0,0
08.07.2020 19:00:00 28,6 8,8 6 3 16 9 NNO 0,0
08.07.2020 18:00:00 28,8 9,0 5 3 21 11 NNO 0,0
08.07.2020 17:00:00 28,1 9,4 8 4 19 11 O 0,0
08.07.2020 16:00:00 27,7 9,5 9 5 34 19 O 0,0
08.07.2020 15:00:00 26,6 8,5 8 5 22 12 O 0,0
08.07.2020 14:00:00 26,3 7,3 11 6 23 12 N 0,0
08.07.2020 13:00:00 25,6 7,7 11 6 29 16 O 0,0
08.07.2020 12:00:00 24,0 7,6 10 6 23 12 ONO 0,0
08.07.2020 11:00:00 23,1 8,0 11 6 21 11 NNO 0,0
08.07.2020 10:00:00 21,4 11,1 9 5 14 8 NO 0,0
08.07.2020 09:00:00 20,7 9,6 2 1 10 5 SO 0,0
08.07.2020 08:00:00 18,4 8,9 4 2 14 7 E 0,0
08.07.2020 07:00:00 15,0 8,0 11 6 14 8 ESE 0,0
08.07.2020 06:00:00 13,5 7,5 9 5 12 7 ESE 0,0
08.07.2020 05:00:00 13,9 7,9 6 4 8 5 ESE 0,0
08.07.2020 04:00:00 14,4 7,9 6 3 12 6 E 0,0
08.07.2020 03:00:00 14,7 8,0 9 5 13 7 ESE 0,0
08.07.2020 02:00:00 14,9 8,4 9 5 16 9 ESE 0,0
08.07.2020 01:00:00 15,3 8,3 7 4 13 7 NE 0,0
08.07.2020 00:00:00 17,3 7,9 6 3 9 5 E 0,0
07.07.2020 23:00:00 17,3 8,7 8 4 10 5 ESE 0,0
07.07.2020 22:00:00 19,1 7,2 5 3 10 5 E 0,0
07.07.2020 21:00:00 21,9 6,5 6 3 13 7 N 0,0
07.07.2020 20:00:00 23,1 5,9 9 5 20 11 NNE 0,0
07.07.2020 19:00:00 24,8 7,0 9 5 27 15 N 0,0
07.07.2020 18:00:00 24,9 7,5 15 8 32 17 NNO 0,0
07.07.2020 17:00:00 24,7 5,5 13 7 33 18 N 0,0
07.07.2020 16:00:00 24,3 7,0 14 8 30 16 N 0,0
07.07.2020 15:00:00 23,5 5,8 19 10 33 18 NNO 0,0
07.07.2020 14:00:00 23,4 6,2 20 11 36 19 NNE 0,0
07.07.2020 13:00:00 22,1 5,9 17 9 37 20 N 0,0
07.07.2020 12:00:00 21,6 5,5 19 10 35 19 N 0,0
07.07.2020 11:00:00 20,5 7,5 19 11 32 17 N 0,0
07.07.2020 10:00:00 18,1 9,2 14 7 23 13 NO 0,0
07.07.2020 09:00:00 15,5 9,2 10 5 16 9 NO 0,0
07.07.2020 08:00:00 13,4 8,5 6 3 16 9 NO 0,0
07.07.2020 07:00:00 12,1 6,6 7 4 16 9 NNE 0,0
07.07.2020 06:00:00 11,3 6,0 8 4 16 8 NNE 0,0
07.07.2020 05:00:00 11,0 5,9 9 5 13 7 ENE 0,0
07.07.2020 04:00:00 11,9 5,7 10 6 18 10 ENE 0,0
07.07.2020 03:00:00 12,4 6,2 15 8 20 11 ENE 0,0
07.07.2020 02:00:00 12,9 6,2 14 8 17 9 ENE 0,0
07.07.2020 01:00:00 14,5 5,8 14 7 20 11 ENE 0,0
07.07.2020 00:00:00 15,6 5,8 15 8 29 16 NE 0,0
06.07.2020 23:00:00 16,7 6,5 17 9 27 14 NNE 0,0
06.07.2020 22:00:00 17,8 6,6 16 9 31 17 NNE 0,0
06.07.2020 21:00:00 19,6 6,0 18 10 37 20 N 0,0
06.07.2020 20:00:00 21,3 5,2 16 9 32 17 N 0,0
06.07.2020 19:00:00 22,9 5,3 19 10 34 18 NNO 0,0
06.07.2020 18:00:00 23,5 2,9 16 8 33 18 NNO 0,0
06.07.2020 17:00:00 23,7 4,1 14 8 34 18 NO 0,0
06.07.2020 16:00:00 23,6 5,5 11 6 34 18 NNO 0,0
06.07.2020 15:00:00 23,3 5,2 17 9 31 17 NO 0,0
06.07.2020 14:00:00 21,7 8,6 16 9 29 16 ONO 0,0
06.07.2020 13:00:00 21,1 11,1 16 8 30 16 ONO 0,0
06.07.2020 12:00:00 19,9 13,4 9 5 19 10 NO 0,0
06.07.2020 11:00:00 18,9 13,3 12 6 25 14 N 0,0
06.07.2020 10:00:00 17,3 14,8 13 7 30 16 NNO 0,0
06.07.2020 09:00:00 17,4 16,8 5 3 21 11 ONO 0,6
06.07.2020 08:00:00 17,3 16,3 14 8 26 14 NO 0,2
06.07.2020 07:00:00 19,0 16,2 10 5 23 12 OSO 0,0
06.07.2020 06:00:00 19,3 16,3 10 5 22 12 SO 0,0
06.07.2020 05:00:00 19,5 16,2 10 5 17 9 SSO 0,0
06.07.2020 04:00:00 19,6 15,5 9 5 16 9 SSO 0,0
06.07.2020 03:00:00 19,6 15,3 8 5 14 7 S 0,0
06.07.2020 02:00:00 19,2 15,3 6 3 12 7 SE 0,0
06.07.2020 01:00:00 20,2 15,4 8 4 10 6 SSE 0,0
06.07.2020 00:00:00 21,0 15,5 6 3 16 9 S 0,0
05.07.2020 23:00:00 22,1 15,7 12 6 22 12 O 0,0
05.07.2020 22:00:00 22,9 15,5 9 5 18 10 O 0,0
05.07.2020 21:00:00 24,8 15,4 9 5 19 11 O 0,0
05.07.2020 20:00:00 26,6 16,2 13 7 23 13 OSO 0,0
05.07.2020 19:00:00 27,4 16,7 15 8 32 18 O 0,0
05.07.2020 18:00:00 28,3 15,9 12 6 26 14 OSO 0,0
05.07.2020 17:00:00 28,2 16,1 13 7 29 15 OSO 0,0
05.07.2020 16:00:00 27,2 16,2 8 5 31 17 OSO 0,0
05.07.2020 15:00:00 26,3 16,2 11 6 26 14 SO 0,0
05.07.2020 14:00:00 25,1 15,7 12 6 32 17 O 0,0
05.07.2020 13:00:00 24,9 16,6 11 6 26 14 SO 0,0
05.07.2020 12:00:00 23,1 15,4 12 6 22 12 S 0,0
05.07.2020 11:00:00 21,4 15,0 12 7 21 11 SSO 0,0
05.07.2020 10:00:00 20,4 14,7 14 8 22 12 SSO 0,0

tt = Temperatura
td = dewpoint
ff = velocità del vento
fx = gusts
dd = direzione del vento
rr = precipitazioni

Stazioni seguenti

WeatherPro
AMSI
MeteoEarth